Flag for U.S.A. Weather past 2 weeks in Jacksonville, North Carolina, U.S.A.

Now
73 °F

Sunny.


Feels Like: 73 °F
Forecast: 73 / 87 °F
Wind: 13 mph from West

Location: Jacksonville - New River

Current Time: Jul 1, 2015 at 8:20:10 AM

Latest Report: Jul 1, 2015 at 7:56 AM


Visibility: 10 mi

Pressure: 29.97 "Hg

Humidity: 81%

Dew point: 67 °F

Location of JacksonvilleLocation

Historic Weather in Jacksonville — Graph

°F

Jacksonville temperature yesterday

Maximum temperature yesterday: 89 °F (at 12:56 PM)
Minimum temperature yesterday: 71 °F (at 5:56 AM)
Average temperature yesterday: 80 °F

Past Weeks' High & Low Weather Summary

 TemperatureHumidityPressure
High98 °F (Jun 16, 2:56 PM)94% (Jun 18, 2:56 AM)30.11 "Hg (Jun 18, 2:56 AM)
Low71 °F (Jun 29, 5:56 AM)36% (Jun 16, 2:56 PM)29.78 "Hg (Jun 27, 6:56 PM)
Average82 °F74%29.99 "Hg
* Reported Jun 16 6:56 AM — Jul 1 6:56 AM, Jacksonville, Weather by CustomWeather, © 2015

Note: Actual official high and low records may vary slightly from our data, if they occured in-between our weather recording intervals... More about our weather records

Advertising

Jacksonville weather history for previous 24 hours

 ConditionsComfort  
Time TempWeatherWind HumidityBarometerVisibility
6:56 AM
Wed, Jul 1
72 °FClear.8 mph84%29.96 "Hg10 mi
5:56 AM71 °FClear.7 mph87%29.96 "Hg10 mi
4:56 AM73 °FClear.6 mph81%29.95 "Hg10 mi
3:56 AM73 °FClear.5 mph84%29.95 "Hg10 mi
2:56 AM75 °FPassing clouds.5 mph82%29.95 "Hg10 mi
1:56 AM79 °FClear.9 mph77%29.94 "Hg10 mi
12:56 AM78 °FPassing clouds.7 mph79%29.93 "Hg10 mi
11:56 PM
Tue, Jun 30
77 °FClear.No wind74%29.96 "Hg10 mi
10:56 PM79 °FClear.7 mph69%29.96 "Hg10 mi
9:56 PM80 °FClear.10 mph64%29.96 "Hg10 mi
8:56 PM80 °FSunny.10 mph69%29.94 "Hg10 mi
7:56 PM81 °FSunny.13 mph69%29.94 "Hg10 mi
6:56 PM84 °FSunny.13 mph59%29.92 "Hg10 mi
5:56 PM86 °FSunny.14 mph49%29.92 "Hg10 mi
4:56 PM87 °FSunny.13 mph48%29.91 "Hg10 mi
3:56 PM88 °FPassing clouds.14 mph48%29.92 "Hg10 mi
2:56 PM89 °FScattered clouds.8 mph50%29.93 "Hg10 mi
1:56 PM89 °FScattered clouds.9 mph43%29.96 "Hg10 mi
12:56 PM89 °FSunny.6 mph43%29.98 "Hg10 mi
11:56 AM87 °FPassing clouds.8 mph48%29.99 "Hg10 mi
10:56 AM85 °FSunny.5 mph55%30.00 "Hg10 mi
9:56 AM82 °FScattered clouds.7 mph63%30.00 "Hg10 mi
8:56 AM78 °FScattered clouds.7 mph71%30.00 "Hg10 mi
Weather by CustomWeather, © 2015

See weather overviewHow to use our weather pages